Weather History for KGEY - September, 2013

Change the Weather History Date:

Monday, September 2, 2013

  Actual Average Record
Temperature  
Mean Temperature 73 °F 66 °F  
Max Temperature 93 °F 83 °F 96 °F (2007)
Min Temperature 53 °F 49 °F 37 °F (2006)
Degree Days  
Heating Degree Days 0 2  
Month to date heating degree days 0 4  
Since 1 July heating degree days 0 25  
Cooling Degree Days 8 3  
Month to date cooling degree days 15 7  
Year to date cooling degree days 924 640  
Growing Degree Days 23 (Base 50)    
Moisture  
Dew Point 42 °F    
Average Humidity 40    
Maximum Humidity 61    
Minimum Humidity 18    
Precipitation  
Precipitation T in 0.03 in 0.15 in (1999)
Month to date precipitation T 0.06  
Year to date precipitation 2.62 5.51  
Sea Level Pressure  
Sea Level Pressure 29.88 in    
Wind  
Wind Speed 7 mph (NW)    
Max Wind Speed 25 mph    
Max Gust Speed 30 mph    
Visibility 10 miles    
Events Rain    
T = Trace of Precipitation, MM = Missing Value Source: NWS Daily Summary

Daily Weather History Graph

Daily Weather History Graph

Search for Another Location

Airport or City:

Trip Planner

Search our weather history database for the weather conditions in past years. The results will help you decide how hot, cold, wet, or windy it might be!

Date:

Astronomy

Sep. 02, 2013 Rise Set
Actual Time 6:36 AM MDT 7:46 PM MDT
Civil Twilight 6:06 AM MDT 8:16 PM MDT
Nautical Twilight 5:30 AM MDT 8:52 PM MDT
Astronomical Twilight 4:52 AM MDT 9:29 PM MDT
Moon 3:52 AM MDT (9/2) 6:04 PM MDT (9/2)
Length of Visible Light 14h 09m
Length of Day
13h 09m
Waning Crescent, 7% of the Moon is Illuminated
Sep 2
Waning Crescent
Sep 5
New
Sep 12
First Quarter
Sep 19
Full
Sep 26
Last Quarter

Hourly Weather History & Observations

Time (MDT) Temp. Dew Point Humidity Pressure Visibility Wind Dir Wind Speed Gust Speed Precip Events Conditions
12:53 AM 61.0 °F 37.0 °F 41% 29.91 in 10.0 mi West 3.5 mph - N/A   Clear
1:53 AM 60.1 °F 36.0 °F 41% 29.91 in 10.0 mi Calm Calm - N/A   Clear
2:53 AM 62.1 °F 36.0 °F 38% 29.90 in 10.0 mi Calm Calm - N/A   Clear
3:53 AM 57.0 °F 33.1 °F 40% 29.90 in 10.0 mi Calm Calm - N/A   Clear
4:53 AM 55.0 °F 39.9 °F 57% 29.91 in 10.0 mi South 3.5 mph - N/A   Clear
5:53 AM 55.9 °F 41.0 °F 57% 29.90 in 10.0 mi Calm Calm - N/A   Clear
6:53 AM 55.0 °F 34.0 °F 45% 29.91 in 10.0 mi Calm Calm - N/A   Clear
7:53 AM 60.1 °F 33.1 °F 36% 29.91 in 10.0 mi North 4.6 mph - N/A   Clear
8:53 AM 60.1 °F 41.0 °F 49% 29.94 in 10.0 mi SE 3.5 mph - N/A   Clear
9:53 AM 64.9 °F 41.0 °F 42% 29.93 in 10.0 mi SE 3.5 mph - N/A   Clear
10:53 AM 72.0 °F 37.0 °F 28% 29.91 in 10.0 mi SE 3.5 mph - N/A   Clear
11:53 AM 73.9 °F 37.0 °F 26% 29.91 in 10.0 mi SW 3.5 mph - N/A   Clear
12:53 PM 77.0 °F 37.0 °F 24% 29.90 in 10.0 mi Calm Calm - N/A   Clear
1:53 PM 82.0 °F 37.0 °F 20% 29.88 in 10.0 mi Calm Calm - N/A   Mostly Cloudy
2:53 PM 88.0 °F 41.0 °F 19% 29.82 in 10.0 mi NNW 8.1 mph - N/A   Clear
3:53 PM 91.0 °F 43.0 °F 19% 29.81 in 10.0 mi North 9.2 mph - N/A   Clear
4:53 PM 90.0 °F 43.0 °F 19% 29.80 in 10.0 mi NNW 19.6 mph 27.6 mph N/A   Scattered Clouds
5:53 PM 86.0 °F 46.0 °F 25% 29.82 in 10.0 mi NW 20.7 mph - N/A   Clear
6:53 PM 82.9 °F 46.0 °F 27% 29.82 in 10.0 mi NW 17.3 mph - N/A   Partly Cloudy
7:53 PM 80.1 °F 51.1 °F 36% 29.86 in 10.0 mi WNW 20.7 mph - N/A   Overcast
8:53 PM 75.9 °F 55.0 °F 48% 29.88 in 10.0 mi North 19.6 mph 28.8 mph 0.00 in Rain Light Rain
9:53 PM 75.9 °F 53.1 °F 45% 29.88 in 10.0 mi NNE 10.4 mph 24.2 mph 0.00 in   Overcast
10:53 PM 73.9 °F 54.0 °F 50% 29.88 in 10.0 mi WSW 4.6 mph - N/A   Scattered Clouds
11:53 PM 71.1 °F 57.0 °F 61% 29.87 in 10.0 mi West 5.8 mph - N/A   Mostly Cloudy